DL4LAM-15 Weather Reports


time (UTC)temp
C
wind
direction
speed
KPH
gust
KPH
rain 1hr
cm
rain 24hr
cm
rain mn
cm
humidity
%
barometer
mb
20260506202016 10 68 1.6 8.0 0.05 1.96 1.93 97 1008.1
20260506201516 10 0.0 3.2 0.05 1.96 1.93 97 1008.0
20260506201016 10 23 1.6 12.9 0.05 1.93 1.93 97 1008.0
20260506200516 10 45 3.2 12.9 0.05 1.93 1.93 97 1007.9
20260506195517 10 0.0 4.8 0.08 1.93 1.93 97 1007.9
20260506195017 10 248 1.6 9.7 0.08 1.93 1.93 97 1007.8
20260506193516 10 0.0 4.8 0.05 1.93 1.91 97 1007.7
20260506193017 10 23 1.6 9.7 0.08 1.93 1.91 97 1007.6
20260506192516 10 270 1.6 6.4 0.10 1.93 1.91 97 1007.6
20260506191016 10 0.0 3.2 0.08 1.91 1.88 97 1007.4
20260506190516 10 0.0 6.4 0.10 1.91 1.88 97 1007.3
20260506190018 10 0.0 4.8 0.10 1.88 1.85 97 1007.3
20260506185516 10 270 1.6 4.8 0.08 1.85 1.83 97 1007.3
20260506185016 10 0.0 3.2 0.08 1.85 1.83 97 1007.2
20260506184516 10 0.0 6.4 0.08 1.85 1.83 97 1007.2
20260506184016 10 0.0 4.8 0.08 1.85 1.83 97 1007.2
20260506183016 10 0.0 6.4 0.05 1.83 1.83 96 1007.1
20260506182516 10 0.0 6.4 0.05 1.83 1.80 96 1007.1
20260506181516 10 45 1.6 9.7 0.05 1.83 1.80 96 1007.0
20260506181016 10 0.0 6.4 0.05 1.83 1.80 96 1006.9
20260506180516 10 0.0 4.8 0.05 1.80 1.78 96 1006.9
20260506180017 10 0.0 4.8 0.03 1.78 1.75 96 1006.9
20260506175517 10 248 1.6 6.4 0.05 1.78 1.75 96 1006.9
20260506175016 10 248 1.6 9.7 0.05 1.78 1.75 96 1006.8
20260506174016 10 270 1.6 6.4 0.05 1.78 1.75 97 1006.9
20260506173516 10 293 1.6 9.7 0.05 1.78 1.75 97 1006.9
20260506172517 10 0.0 4.8 0.05 1.78 1.75 97 1006.8
20260506172016 10 270 1.6 6.4 0.05 1.78 1.75 96 1006.8
20260506171516 10 0.0 3.2 0.05 1.75 1.75 96 1006.8
20260506171017 10 315 1.6 6.4 0.05 1.75 1.75 96 1006.7
20260506170516 10 45 1.6 6.4 0.05 1.75 1.75 96 1006.5
20260506170016 10 0.0 3.2 0.05 1.75 1.75 96 1006.6
20260506165516 10 0.0 1.6 0.05 1.75 1.73 96 1006.6
20260506165016 10 0.0 0.0 0.05 1.75 1.73 96 1006.7
20260506164517 10 0.0 3.2 0.08 1.75 1.73 96 1006.7
20260506163516 10 0.0 3.2 0.08 1.73 1.70 96 1006.7
20260506163016 10 293 1.6 6.4 0.10 1.73 1.70 96 1006.8
20260506162516 10 0.0 3.2 0.10 1.73 1.70 96 1006.7
20260506162016 10 248 1.6 9.7 0.10 1.73 1.70 96 1006.6
20260506161517 10 0.0 3.2 0.08 1.70 1.68 96 1006.5
20260506161016 10 0.0 3.2 0.08 1.70 1.68 96 1006.5
20260506160516 10 0.0 1.6 0.08 1.70 1.68 96 1006.5
20260506160016 10 68 1.6 8.0 0.08 1.70 1.68 96 1006.5
20260506155516 10 0.0 4.8 0.08 1.70 1.68 96 1006.5
20260506154516 10 0.0 4.8 0.05 1.65 1.65 96 1006.5
20260506154016 10 270 1.6 6.4 0.05 1.65 1.65 96 1006.5
20260506153516 10 0.0 6.4 0.03 1.65 1.63 96 1006.5
20260506153016 10 0.0 6.4 0.03 1.63 1.60 96 1006.5
20260506152517 10 0.0 1.6 0.03 1.63 1.60 96 1006.6
20260506152016 10 0.0 4.8 0.03 1.63 1.60 96 1006.5
20260506151516 10 0.0 1.6 0.03 1.63 1.60 96 1006.5
20260506151016 10 0.0 3.2 0.05 1.63 1.60 96 1006.5
20260506150516 10 0.0 0.0 0.05 1.63 1.60 97 1006.4
20260506150016 10 0.0 3.2 0.05 1.63 1.60 97 1006.4
20260506145016 10 0.0 4.8 0.05 1.63 1.60 96 1006.4
20260506144516 10 0.0 3.2 0.08 1.63 1.60 96 1006.4
20260506144016 10 0.0 6.4 0.08 1.63 1.60 96 1006.3
20260506143516 10 0.0 6.4 0.10 1.63 1.60 96 1006.3
20260506143016 10 225 1.6 6.4 0.08 1.60 1.57 96 1006.3
20260506142516 10 270 1.6 9.7 0.10 1.60 1.57 96 1006.3
20260506142016 10 0.0 3.2 0.10 1.60 1.57 96 1006.3
20260506141516 10 68 1.6 6.4 0.10 1.60 1.57 96 1006.4
20260506140516 10 0.0 4.8 0.08 1.57 1.55 96 1006.4
20260506140016 10 23 1.6 8.0 0.08 1.57 1.55 96 1006.4
20260506135516 10 0.0 1.6 0.08 1.55 1.55 96 1006.5
20260506135018 10 0.0 4.8 0.08 1.55 1.55 96 1006.4
20260506134517 10 68 1.6 4.8 0.08 1.55 1.52 96 1006.4
20260506134016 10 23 1.6 8.0 0.08 1.55 1.52 96 1006.4
20260506133516 10 68 1.6 6.4 0.05 1.52 1.50 96 1006.5
20260506133016 10 68 1.6 11.3 0.05 1.52 1.50 96 1006.4
20260506132516 10 68 1.6 8.0 0.05 1.50 1.47 96 1006.5
20260506132016 10 90 1.6 11.3 0.05 1.50 1.47 96 1006.4
20260506131536 10 0.0 4.8 0.05 1.50 1.47 96 1006.3
20260506130516 10 68 3.2 9.7 0.05 1.50 1.47 96 1006.2
20260506130016 10 0.0 3.2 0.05 1.50 1.47 96 1006.2
20260506125516 10 68 1.6 14.5 0.05 1.47 1.45 96 1006.2
20260506125016 10 68 3.2 14.5 0.05 1.47 1.45 96 1006.2
20260506124516 10 68 1.6 4.8 0.05 1.45 1.45 96 1006.2
20260506124016 10 68 1.6 6.4 0.05 1.45 1.45 96 1006.3
20260506123016 10 45 3.2 12.9 0.05 1.45 1.45 96 1006.2
20260506122016 10 68 1.6 8.0 0.05 1.45 1.45 96 1006.1
20260506121517 10 0 1.6 4.8 0.08 1.45 1.45 96 1006.1
20260506121016 10 0.0 4.8 0.08 1.45 1.45 96 1006.1
20260506120516 10 68 3.2 12.9 0.05 1.45 1.42 96 1006.1
20260506120016 10 68 3.2 11.3 0.05 1.45 1.42 96 1006.0
20260506115516 10 45 1.6 11.3 0.05 1.45 1.42 96 1006.0
20260506114516 10 90 3.2 9.7 0.05 1.42 1.40 96 1006.1
20260506114017 10 68 4.8 11.3 0.05 1.42 1.40 96 1006.1
20260506113016 10 45 3.2 12.9 0.05 1.42 1.40 96 1006.1
20260506112516 10 45 1.6 8.0 0.05 1.40 1.37 96 1006.1
20260506112016 10 68 3.2 11.3 0.05 1.40 1.37 96 1006.2
20260506111516 9 0.0 3.2 0.03 1.37 1.37 96 1006.1
20260506111017 9 68 3.2 12.9 0.03 1.37 1.37 96 1006.2
20260506110516 9 68 3.2 8.0 0.03 1.37 1.37 96 1006.1
20260506110016 9 68 3.2 11.3 0.03 1.37 1.37 96 1006.1
20260506105516 9 0.0 3.2 0.03 1.37 1.37 96 1006.2
20260506105016 9 68 3.2 8.0 0.03 1.37 1.37 96 1006.1
20260506104516 9 68 3.2 12.9 0.00 1.37 1.35 96 1006.1
20260506104016 9 68 3.2 12.9 0.03 1.37 1.35 96 1006.1
20260506103516 9 68 1.6 12.9 0.03 1.37 1.35 96 1006.1
20260506103017 9 68 3.2 12.9 0.03 1.37 1.35 96 1006.1
20260506102016 9 0.0 4.8 0.03 1.37 1.35 96 1006.0
20260506101516 9 68 1.6 8.0 0.03 1.37 1.35 96 1006.1
20260506100516 9 45 1.6 8.0 0.05 1.37 1.35 96 1006.0
20260506100036 9 0.0 4.8 0.05 1.37 1.35 96 1006.0
20260506095516 8 45 1.6 8.0 0.05 1.37 1.35 96 1006.0
20260506095016 8 45 1.6 4.8 0.05 1.37 1.35 96 1006.0
20260506094516 8 68 1.6 6.4 0.05 1.37 1.35 96 1006.0
20260506094016 8 0.0 6.4 0.05 1.35 1.32 96 1006.0
20260506092516 8 68 1.6 8.0 0.08 1.35 1.32 96 1005.9
20260506091516 8 0.0 3.2 0.13 1.35 1.32 96 1005.8
20260506091016 8 0.0 4.8 0.10 1.32 1.30 96 1005.8
20260506090516 8 45 3.2 11.3 0.10 1.32 1.30 96 1005.8
20260506090016 8 68 1.6 8.0 0.10 1.32 1.30 96 1005.8
20260506085016 8 68 1.6 14.5 0.08 1.30 1.27 96 1005.8
20260506084516 8 68 1.6 12.9 0.10 1.30 1.27 96 1005.8
20260506084016 8 68 1.6 8.0 0.08 1.27 1.27 96 1005.8
20260506083516 8 68 1.6 11.3 0.08 1.27 1.27 96 1005.7
20260506083021 8 0.0 3.2 0.08 1.27 1.24 96 1005.7
20260506082516 8 45 1.6 6.4 0.08 1.27 1.24 96 1005.7
20260506082016 8 0.0 6.4 0.05 1.24 1.22 96 1005.7
20260506081518 8 45 1.6 4.8 0.05 1.22 1.19 96 1005.6
20260506081016 8 68 3.2 6.4 0.05 1.22 1.19 96 1005.7
20260506073516 8 23 1.6 6.4 0.10 1.19 1.17 96 1005.5
20260506073015 8 23 1.6 8.0 0.08 1.17 1.17 96 1005.5
20260506072516 8 0.0 4.8 0.08 1.17 1.17 96 1005.5
20260506072036 8 0.0 1.6 0.10 1.17 1.17 96 1005.5
20260506062516 9 315 1.6 8.0 0.13 1.09 1.09 96 1005.2
20260506062017 9 90 1.6 4.8 0.10 1.09 1.07 96 1005.1
20260506061536 9 0.0 4.8 0.10 1.09 1.07 96 1005.1
20260506060517 9 0.0 4.8 0.10 1.07 1.04 96 1005.0
20260506051018 9 45 1.6 6.4 0.13 0.99 0.94 96 1005.1
20260506050517 9 0.0 3.2 0.15 0.99 0.94 96 1005.1
20260506044517 9 68 1.6 8.0 0.15 0.94 0.89 96 1005.1
20260506044017 9 68 1.6 6.4 0.15 0.91 0.89 95 1005.2
20260506043517 9 68 3.2 12.9 0.15 0.94 0.89 95 1005.2
20260506043017 9 45 1.6 9.7 0.15 0.91 0.86 95 1005.2
20260506042518 10 90 1.6 11.3 0.15 0.89 0.84 95 1005.2
20260506042017 10 68 1.6 11.3 0.15 0.91 0.84 95 1005.2
20260506041517 10 68 1.6 8.0 0.18 0.91 0.84 95 1005.2
20260506041018 10 45 3.2 12.9 0.20 0.89 0.81 95 1005.2
20260506040018 10 45 1.6 8.0 0.20 0.89 0.79 95 1005.3
20260506035517 10 45 3.2 9.7 0.20 0.89 0.79 95 1005.4
20260506035017 10 23 1.6 6.4 0.20 0.86 0.76 95 1005.4
20260506034518 10 68 1.6 8.0 0.20 0.86 0.76 95 1005.4
20260506034018 10 68 1.6 6.4 0.20 0.84 0.74 95 1005.4
20260506033517 10 0.0 4.8 0.20 0.81 0.71 95 1005.4
20260506033018 10 68 1.6 11.3 0.23 0.81 0.71 95 1005.5
20260506032517 10 68 1.6 6.4 0.23 0.79 0.71 95 1005.5
20260506032017 10 0.0 4.8 0.23 0.79 0.69 95 1005.5
20260506031517 10 68 1.6 6.4 0.25 0.76 0.66 95 1005.5
20260506030517 10 45 1.6 4.8 0.23 0.71 0.61 95 1005.6
20260506030017 10 0.0 3.2 0.23 0.71 0.61 95 1005.6
20260506025518 10 0.0 3.2 0.23 0.71 0.58 95 1005.6
20260506025017 10 0.0 3.2 0.23 0.69 0.56 95 1005.7
20260506024017 10 0.0 1.6 0.23 0.66 0.53 95 1005.7
20260506023517 10 0.0 6.4 0.23 0.64 0.51 95 1005.8
20260506022517 10 0.0 3.2 0.20 0.58 0.46 95 1005.8
20260506021517 10 0.0 4.8 0.15 0.53 0.41 95 1005.8
20260506021017 10 0.0 3.2 0.15 0.53 0.41 95 1005.9
20260506020518 10 0.0 4.8 0.15 0.51 0.38 95 1005.9
20260506020017 10 0.0 4.8 0.15 0.51 0.36 95 1005.9
20260506015017 11 68 1.6 11.3 0.15 0.51 0.33 95 1006.0
20260506014517 11 45 1.6 4.8 0.15 0.48 0.33 95 1006.0
20260506014017 11 68 1.6 4.8 0.15 0.46 0.30 95 1006.1
20260506013518 11 0.0 4.8 0.15 0.46 0.30 95 1006.0
20260506013017 11 68 1.6 6.4 0.15 0.43 0.28 95 1006.1
20260506012518 11 45 1.6 6.4 0.15 0.43 0.25 95 1006.1
20260506011517 11 0.0 4.8 0.15 0.41 0.23 95 1006.1
20260506010517 11 0.0 4.8 0.15 0.38 0.23 95 1006.1
20260506010017 11 0.0 6.4 0.15 0.36 0.20 95 1006.1
20260506005017 11 0.0 4.8 0.18 0.36 0.20 95 1006.1
20260506004517 11 68 1.6 8.0 0.15 0.33 0.18 94 1006.1
20260506004017 11 68 1.6 4.8 0.15 0.33 0.15 94 1006.3
20260506003517 11 0.0 4.8 0.15 0.33 0.15 94 1006.3
20260506003022 11 0.0 6.4 0.15 0.30 0.15 94 1006.4
20260506002517 11 45 1.6 6.4 0.13 0.28 0.13 94 1006.4
20260506001517 11 45 1.6 6.4 0.08 0.23 0.08 94 1006.5
20260506001017 11 0.0 4.8 0.08 0.23 0.08 94 1006.5
20260506000517 11 68 1.6 11.3 0.05 0.23 0.05 94 1006.6
20260506000017 11 68 3.2 8.0 0.05 0.20 0.05 93 1006.6
20260505235517 11 68 3.2 16.1 0.05 0.20 0.05 94 1006.7
20260505235017 11 0.0 4.8 0.03 0.18 0.03 93 1006.7
20260505234517 11 68 1.6 8.0 0.03 0.18 0.03 93 1006.8
20260505234017 11 68 1.6 8.0 0.00 0.15 0.00 93 1006.8
20260505233537 11 68 1.6 6.4 0.00 0.15 0.00 93 1006.8
20260505233017 11 90 4.8 12.9 0.00 0.15 0.00 92 1006.9
20260505232517 11 68 4.8 12.9 0.00 0.15 0.00 92 1006.9
20260505232017 11 68 3.2 8.0 0.00 0.18 0.00 92 1006.9
20260505231518 11 68 3.2 11.3 0.00 0.18 0.00 92 1007.0
20260505231017 11 68 1.6 11.3 0.00 0.18 0.00 92 1007.0
20260505230517 11 45 1.6 6.4 0.00 0.18 0.00 92 1007.0
20260505230017 11 68 3.2 12.9 0.00 0.18 0.00 92 1007.0
20260505225517 11 68 4.8 9.7 0.00 0.18 0.00 92 1007.0
20260505225017 11 68 3.2 11.3 0.00 0.18 0.00 92 1007.0
20260505224017 11 68 3.2 12.9 0.00 0.20 0.00 92 1007.2
20260505223517 12 68 1.6 8.0 0.00 0.20 0.00 92 1007.2
20260505223017 12 68 1.6 11.3 0.00 0.20 0.00 92 1007.2
20260505222518 12 68 4.8 12.9 0.00 0.20 0.00 92 1007.3
20260505222017 12 90 1.6 8.0 0.00 0.20 0.00 92 1007.4
20260505221017 12 68 1.6 8.0 0.00 0.20 0.00 91 1007.3
20260505220517 12 90 3.2 11.3 0.03 0.20 0.00 91 1007.2
20260505220017 12 68 3.2 11.3 0.03 0.20 0.20 91 1007.3
20260505215517 12 68 1.6 9.7 0.03 0.20 0.20 91 1007.3
20260505215016 12 68 3.2 14.5 0.03 0.20 0.20 91 1007.4
20260505214516 12 45 4.8 16.1 0.03 0.20 0.20 91 1007.4
20260505214016 12 68 3.2 9.7 0.03 0.20 0.20 91 1007.4
20260505213516 12 90 3.2 12.9 0.03 0.20 0.20 91 1007.4
20260505212516 12 68 3.2 16.1 0.03 0.20 0.20 91 1007.5
20260505212016 12 68 3.2 11.3 0.03 0.20 0.20 91 1007.5
20260505211516 12 68 3.2 12.9 0.03 0.23 0.20 91 1007.5
20260505211016 12 45 4.8 11.3 0.03 0.23 0.20 91 1007.6
20260505210516 12 68 1.6 8.0 0.00 0.20 0.18 91 1007.6
20260505210057 12 90 3.2 11.3 0.00 0.23 0.18 91 1007.6
20260505204017 12 68 3.2 12.9 0.00 0.23 0.18 91 1007.5
20260505203516 12 68 1.6 11.3 0.00 0.23 0.18 91 1007.6
20260505203016 12 68 1.6 8.0 0.00 0.23 0.18 91 1007.5